Location: Waco, TX
(31.5480°N, 97.1670°W)
Time: 04:07:09
(UTC-06:00)

ISS - Pass Details

Date: 23 November 2017
Orbit: 401 x 407 km, 51.6° (Epoch: 18 November)

Event Time Altitude Azimuth Distance (km) Brightness Sun altitude
Rises 05:04:08 0° 292° (WNW) 2,308 - -25.2°
Reaches altitude 10° 05:07:08 10° 261° (W) 1,445 - -24.6°
Maximum altitude 05:08:35 12° 234° (SW) 1,304 - -24.3°
Drops below altitude 10° 05:10:02 10° 208° (SSW) 1,441 - -24.0°
Exits shadow 05:12:16 - 182° (S) 2,038 -0.2 -23.5°
Sets 05:13:02 0° 177° (S) 2,294 0.2 -23.4°
